Location: Goudie Road
(49.9333°N, 119.0750°W)
Time: 12:53:06
(UTC-07:00)

Daily predictions for brighter satellites

Satellite Brightness Start Highest point End
(mag) Time Altitude Azimuth Time Altitude Azimuth Time Altitude Azimuth
ATLAS 3B R/B 2.9 20:27:18 10° NW 20:34:08 62° NE 20:40:38 10° ESE
Cosmos 1939 Rocket 3.0 20:32:12 10° SSE 20:36:05 58° ENE 20:39:57 10° N
Cosmos 1536 3.4 20:32:46 10° SSE 20:36:32 38° E 20:40:20 10° NNE
Cosmos 1741 Rocket 4.1 20:31:55 10° NNW 20:37:12 87° WSW 20:42:28 10° SSE
Cosmos 2360 Rocket 3.2 20:34:24 10° SSE 20:38:47 24° ESE 20:43:12 10° NE
Cosmos 1980 Rocket 2.8 20:34:02 10° SW 20:39:36 63° WNW 20:45:11 10° NNE
COSMOS 2428 4.5 20:39:25 10° ESE 20:41:20 12° E 20:43:16 10° ENE
Envisat 3.1 20:38:15 10° SSE 20:43:20 87° WSW 20:48:28 10° NNW
CZ-4B DEB 3.5 20:47:36 10° SE 20:50:09 29° ENE 20:52:42 10° N
NOSS 2-3 (D) 4.2 20:46:08 10° SSW 20:50:39 45° ESE 20:55:58 10° NE
Meteor 1-5 Rocket 4.4 20:47:50 10° SSE 20:52:52 45° E 20:57:55 10° NNE
H-2A R/B 3.4 20:49:13 10° ESE 20:53:02 22° ENE 20:56:49 10° N
EXPRESS MD2 3.4 20:51:54 10° SW 20:54:34 44° SSE 20:59:13 10° ENE
Meteor 2-4 Rocket 3.9 20:52:49 10° NNW 20:58:23 80° W 21:04:04 10° S
NOAA 11 4.5 20:54:25 10° SE 20:59:44 52° ENE 21:05:05 10° N
USA 186 3.5 20:58:36 10° SSW 21:01:44 35° W 21:04:52 10° NNW
Helios 1B rocket 2.9 21:00:57 10° NNE 21:04:49 38° E 21:08:39 10° SSE
MetOp-A 4.4 21:06:05 11° SE 21:11:03 52° ENE 21:16:16 10° N
Cosmos 1110 Rocket 4.3 21:07:21 10° S 21:12:12 42° ESE 21:17:04 10° NE
SPOT 5 3.6 21:12:51 15° SE 21:16:17 36° ENE 21:20:28 10° N
ATLAS 2AS CENTAUR R/B 3.1 21:09:39 10° SSW 21:17:15 60° ESE 21:25:14 10° NE
Lacrosse 5 2.1 21:14:08 10° SSW 21:18:57 45° SE 21:23:48 10° ENE
CENTAUR R/B 4.0 21:15:47 10° NW 21:22:34 37° NNE 21:30:02 10° E
SL-8 R/B 4.1 21:18:18 10° W 21:22:58 52° SSW 21:26:12 19° SE
SeaSat 1 2.4 21:19:59 10° NNE 21:24:57 79° ESE 21:29:54 10° SSW
Cosmos 1331 Rocket 4.2 21:20:10 10° S 21:25:08 48° ESE 21:30:11 10° NNE
NOSS 2-3 (E) 3.9 21:22:38 10° SW 21:27:28 82° SE 21:33:18 10° NE
SL-08 RB Rocket 4.1 21:27:46 19° SE 21:30:43 47° ENE 21:35:04 10° N
BREEZE-M DEB (TANK) 1.4 21:29:12 10° SW 21:31:34 38° SSE 21:31:42 38° SSE
Cosmos 1743 4.3 21:31:23 17° E 21:31:38 17° E 21:34:12 10° NE
Cosmos 1025 Rocket 3.1 21:28:42 10° NNW 21:32:59 75° W 21:37:04 11° S
Okean 2 3.4 21:29:27 10° NNW 21:33:34 83° W 21:37:03 14° S
Okean 1 Rocket 3.2 21:29:50 10° SSW 21:34:11 78° W 21:38:37 10° N
Cosmos 1300 Rocket 4.3 21:30:42 10° SSW 21:34:54 53° WNW 21:39:10 10° N
YAOGAN 6 3.7 21:31:54 10° S 21:35:15 40° W 21:38:36 10° NNW
ARGOS 3.2 21:31:25 17° SSE 21:35:35 67° ENE 21:40:57 10° N
ERBS 3.9 21:36:13 10° W 21:39:29 36° NNW 21:42:44 10° NE
Cosmos 1244 Rocket 4.5 21:34:42 10° S 21:40:43 61° E 21:46:47 10° NNE
Cosmos 2263 Rocket 3.6 21:35:57 10° NW 21:41:01 34° WSW 21:46:03 10° SSW
Abrixas rocket 2.4 21:38:09 10° W 21:41:22 53° SSW 21:42:28 34° SE
Okean 1-7 Rocket 4.0 21:39:12 10° NNW 21:43:39 63° W 21:47:54 11° S
Cosmos 2278 Rocket 3.1 21:39:57 10° NNW 21:45:11 36° NE 21:48:29 20° ESE
Cosmos 1515 3.8 21:41:22 10° NNW 21:45:12 72° W 21:47:54 18° S
Cosmos 1844 Rocket 2.7 21:42:39 10° NNW 21:48:22 76° ENE 21:51:50 25° SE
Resurs 01 Rocket 4.4 21:47:13 10° WSW 21:49:42 15° W 21:52:11 10° NW
Cosmos 2322 Rocket 3.1 21:44:19 10° SW 21:49:53 52° NW 21:55:28 10° NNE
Molniya-1 3.7 21:49:37 10° NW 21:52:12 65° SW 21:53:13 39° SSE
Cosmos 1818 4.2 21:50:30 19° SSE 21:53:29 33° ESE 21:58:18 10° NE
Cosmos 1975 2.9 21:52:10 29° SSE 21:53:54 52° E 21:57:48 10° NNE
SPOT 1/Viking Rocket 3.7 21:51:20 25° SE 21:54:19 62° ENE 21:59:30 10° N
Cosmos 1602 Rocket 4.5 21:51:54 10° N 21:55:49 32° ENE 21:56:59 27° ESE
USA 215 4.1 21:49:53 10° ENE 21:56:07 49° N 22:02:21 10° WNW
Cosmos 2237 4.2 21:50:52 10° S 21:56:25 58° ESE 22:02:02 10° NE
YAOGAN 11 4.0 21:54:27 29° SSE 21:56:34 70° ENE 22:00:53 10° N
Terra 2.7 21:55:49 25° ESE 21:57:38 34° ENE 22:01:56 10° N
Meteor 1-29 3.3 21:55:03 10° N 21:58:27 66° WNW 22:01:32 12° SSW
NOSS 2-3 (C) 4.5 21:56:23 10° SW 22:01:16 65° NW 22:07:14 10° NE
Cosmos 1503 Rocket 4.2 21:55:57 10° NNW 22:01:19 63° ENE 22:03:53 30° SE
H-2A R/B 3.7 22:00:58 19° E 22:02:11 22° ENE 22:05:34 10° N
SL-16 R/B 3.4 21:56:51 10° SW 22:02:16 44° NW 22:07:43 10° NNE
Cosmos 1500 3.2 22:01:57 21° S 22:04:31 86° W 22:08:25 10° N
MetOp-B 4.5 22:00:52 17° S 22:05:01 64° WSW 22:10:22 10° NNW
Cosmos 724 4.2 22:00:53 10° NW 22:06:51 85° NE 22:09:48 31° SE
Cosmos 2219 Rocket 2.9 22:06:05 30° SE 22:07:16 33° ESE 22:12:15 10° NE
BREEZE M DEB (TANK) 2.9 22:00:41 10° W 22:07:40 83° S 22:08:43 42° ESE
NOSS 3-2 (A) 4.0 22:00:49 10° NW 22:08:12 86° SW 22:13:01 27° SE
USA 245 3.7 22:05:52 24° S 22:08:42 73° WSW 22:12:42 10° NNW
USA 238 DEB 4.3 22:03:29 10° NW 22:10:20 53° WSW 22:14:51 22° S
USA 238 4.2 22:03:35 10° NW 22:10:26 54° WSW 22:14:57 22° S
ERS-1 Rocket 3.8 22:06:41 14° S 22:10:46 47° W 22:15:39 10° NNW
Meteor 1-12 Rocket 4.1 22:09:22 21° S 22:13:15 71° E 22:18:54 10° NNE
Cosmos 2322 3.7 22:07:48 10° SSW 22:13:28 87° WNW 22:19:12 10° NNE
Cosmos 1626 Rocket 3.7 22:15:23 10° N 22:19:40 57° ENE 22:20:36 46° ESE
Cosmos 2360 Rocket 2.6 22:16:43 10° SW 22:22:19 66° WNW 22:27:57 10° NNE
Cosmos 1892 Rocket 4.2 22:18:08 10° NNW 22:22:28 52° W 22:24:47 25° SSW
COSMOS 2428 2.6 22:19:31 14° SSW 22:24:31 68° ESE 22:30:14 10° NNE
ATLAS 3B R/B 3.6 22:18:26 10° NW 22:24:32 37° WSW 22:28:26 20° S
Cosmos 1844 3.8 22:21:31 10° NNW 22:27:12 75° WSW 22:29:39 35° SSE
ATLAS CENTAUR R/B 3.0 22:25:28 10° NNW 22:28:22 21° NNE 22:29:33 18° ENE
Cosmos 1437 Rocket 2.7 22:30:01 62° SE 22:30:24 68° E 22:34:21 10° NNE
H-2A R/B 2.3 22:29:40 30° S 22:32:05 62° WSW 22:37:01 10° NNW
Meteor 1-4 Rocket 4.4 22:35:13 21° ENE 22:35:13 21° ENE 22:37:05 10° NE
Cosmos 1745 Rocket 3.9 22:30:27 27° S 22:33:56 81° E 22:40:09 10° NNE
NOSS 0 Rocket 4.4 22:35:52 38° SE 22:36:39 39° ESE 22:42:22 10° NE
Cosmos 2333 Rocket 2.5 22:36:58 42° SE 22:37:44 45° ESE 22:43:05 10° NE
Cosmos 405 4.1 22:36:26 24° SW 22:38:11 42° WNW 22:41:39 10° N
Cosmos 1544 Rocket 4.0 22:38:34 27° SSW 22:40:51 62° WNW 22:45:17 10° N
Cosmos 1825 Rocket 4.4 22:38:54 10° N 22:42:53 34° ENE 22:42:57 34° ENE
Cosmos 2292 Rocket 4.5 22:40:34 32° S 22:44:04 73° E 22:49:38 10° NNE
Cosmos 2333 4.1 22:40:25 17° SSW 22:44:50 86° ESE 22:50:30 10° NNE
Cosmos 1302 Rocket 4.3 22:40:01 10° SSW 22:45:16 68° WNW 22:50:33 10° NNE
IGS 5A 3.3 22:46:13 71° SSE 22:46:40 87° ENE 22:50:52 10° NNW
Cosmos 1992 Rocket 4.2 22:46:40 48° ESE 22:46:54 48° ESE 22:51:56 10° NNE
GP-B 3.0 22:42:28 10° N 22:46:57 75° E 22:47:27 65° SE
NOSS 3-2 (C) 4.1 22:40:00 10° NW 22:47:22 71° SW 22:50:54 36° SSE
BREEZE-M DEB (TANK) 4.1 22:43:34 10° WSW 22:48:10 84° SSE 23:08:31 10° E
Cosmos 1666 2.6 22:49:48 88° SW 22:49:51 88° WNW 22:53:44 10° N
COSMOS 2455 3.5 22:45:01 10° NNW 22:50:49 46° NE 22:53:12 31° E
Cosmos 2369 Rocket 4.5 22:47:26 10° N 22:51:01 17° NNE 22:54:35 10° ENE
Cosmos 968 Rocket 3.5 22:46:29 10° NNW 22:51:36 63° ENE 22:52:34 52° ESE
Aureole 2 Rocket 3.5 22:53:55 37° NNE 22:53:55 37° NNE 22:55:56 10° NNE
Cosmos 1455 Rocket 3.7 22:51:16 29° SW 22:53:16 53° WNW 22:57:41 10° N
Cosmos 2237 Rocket 2.6 22:54:11 42° ESE 22:54:11 42° ESE 22:59:17 10° NE
SPOT 5 4.2 22:52:07 22° SW 22:54:23 32° W 22:58:33 10° NNW
Cosmos 1386 Rocket 4.4 22:54:43 34° S 22:57:39 87° WNW 23:04:00 10° N
Cosmos 1842 3.2 22:53:46 10° NNW 22:57:40 81° W 22:57:40 81° W
Cosmos 1758 Rocket 4.4 22:54:41 10° N 22:58:36 37° ENE 22:58:36 37° ENE
Cosmos 1980 3.8 23:00:19 50° ESE 23:00:33 50° ESE 23:06:02 10° NE
Lacrosse 5 2.4 22:56:53 10° WSW 23:01:54 58° NNW 23:06:55 10° NE
BREEZE-M DEB (TANK) 4.0 22:46:36 10° WSW 23:05:21 74° SSE 23:08:20 27° E
Cosmos 1340 Rocket 4.4 23:02:55 10° N 23:05:41 25° NE 23:05:41 25° NE
Cosmos 1743 3.7 23:06:30 38° WSW 23:07:09 42° WNW 23:10:49 10° N
ATLAS 2AS CENTAUR R/B 3.8 23:00:50 10° WSW 23:08:35 53° NW 23:16:34 10° NE
EXPRESS MD2 4.1 23:08:22 10° W 23:12:23 90° N 23:21:01 10° E
SL-24 R/B 4.5 23:07:38 10° NNE 23:12:27 58° E 23:12:27 58° E
CENTAUR R/B 3.0 23:06:36 10° NW 23:14:20 83° NE 23:17:39 41° SE
Cosmos 2297 3.7 23:11:11 10° NNW 23:16:52 69° ENE 23:17:53 56° ESE
NOSS 3-4 (A) 3.4 23:16:07 41° SSW 23:18:28 73° SE 23:25:00 10° NE
NOSS 3-4 (C) 3.4 23:16:18 42° SSW 23:18:34 72° SE 23:25:06 10° NE
CZ-4B R/B 4.0 23:15:09 10° NNE 23:18:58 41° ENE 23:18:58 41° ENE
SL-08 ROCKET BODY 4.5 23:19:49 52° ESE 23:20:19 53° E 23:26:00 10° NNE
DELTA 2 DEB (DPAF) 4.1 23:26:41 76° NE 23:26:41 76° NE 23:31:01 10° NNW
BREEZE-M (TANK) 4.3 23:19:56 10° WNW 23:27:53 32° SW 23:27:53 32° SW
ALOS 2 3.8 23:28:48 32° ENE 23:28:48 32° ENE 23:32:29 10° N
Cosmos 2278 Rocket 2.6 23:24:00 10° NW 23:29:28 49° WSW 23:30:19 45° SW
ARGOS Delta rocket 3.8 23:26:05 10° N 23:30:39 73° WNW 23:30:57 70° WSW
Cosmos 1844 Rocket 4.5 23:27:33 10° NW 23:31:38 21° W 23:33:29 18° SW
Terra 2.9 23:34:42 33° WSW 23:35:22 34° W 23:39:44 10° NNW
Cosmos 1818 4.2 23:31:30 10° WSW 23:36:51 56° NW 23:42:14 10° NE
Cosmos 1726 Rocket 4.3 23:38:29 46° NE 23:38:29 46° NE 23:41:54 10° NNE
H-2A R/B 2.6 23:38:05 51° W 23:38:05 51° W 23:42:13 10° NNW
USA 215 3.7 23:33:40 18° E 23:38:36 58° NNE 23:45:00 10° WNW
Cosmos 2181 Rocket 4.2 23:32:19 10° NNW 23:38:43 68° W 23:40:18 50° SSW
Cosmos 1953 Rocket 3.8 23:35:49 10° N 23:39:50 71° N 23:39:50 71° N
Cosmos 1709 Rocket 4.1 23:39:58 45° SW 23:41:51 68° WNW 23:48:07 10° N
CZ-2C R/B 3.2 23:41:13 10° NNE 23:45:57 44° E 23:45:57 44° E
CZ-2C R/B 2.9 23:48:33 72° NE 23:48:33 72° NE 23:53:11 10° N
Cosmos 2219 Rocket 2.9 23:47:44 23° WSW 23:51:02 50° NW 23:56:33 10° NNE
Meteor 2-13 Rocket 4.3 23:52:14 69° S 23:53:02 86° E 23:59:14 10° N
